Location: Larrial
(48.2758°N, 4.5331°W)
Time: 13:02:59
(UTC+00:00)

AO-27 - Visible Passes

Search period start: 09 December 2021 00:00
Search period end: 19 December 2021 00:00
Orbit: 786 x 796 km, 98.9° (Epoch: 08 December)

Date Brightness Start Highest point End Pass type
(mag) Time Alt. Az. Time Alt. Az. Time Alt. Az.
09 Dec 9.0 17:10:06 10° E 17:13:38 19° NE 17:17:09 10° NNE visible
09 Dec 7.7 18:47:15 10° SSE 18:52:29 80° WSW 18:57:46 10° NNW visible
09 Dec 10.6 20:30:54 10° WSW 20:32:48 12° W 20:34:43 10° WNW visible
10 Dec 10.0 06:56:54 10° NE 07:01:19 27° E 07:05:41 10° SSE visible
10 Dec 7.6 18:18:12 10° SSE 18:23:21 61° ENE 18:28:32 10° N visible
10 Dec 10.0 19:59:17 10° SW 20:03:13 21° W 20:07:12 10° NW visible
11 Dec 10.6 06:28:45 10° NE 06:31:48 15° E 06:34:50 10° SE visible
11 Dec 8.2 17:49:36 10° SE 17:54:21 36° ENE 17:59:06 10° N visible
11 Dec 9.1 19:28:59 10° SSW 19:33:47 37° W 19:38:38 10° NNW visible
12 Dec 8.8 17:21:30 10° ESE 17:25:27 22° ENE 17:29:26 10° N visible
12 Dec 8.0 18:59:18 10° S 19:04:28 64° WSW 19:09:43 10° NNW visible
13 Dec 9.6 07:08:40 10° NNE 07:13:23 33° E 07:18:04 10° SSE visible
13 Dec 7.5 18:30:05 10° SSE 18:35:18 75° ENE 18:40:33 10° NNW visible
13 Dec 10.3 20:11:57 10° SW 20:15:20 17° W 20:18:44 10° NW visible
14 Dec 10.5 06:40:12 10° NE 06:43:55 19° E 06:47:36 10° SE visible
14 Dec 7.9 18:01:18 10° SE 18:06:14 44° ENE 18:11:12 10° N visible
14 Dec 9.5 19:41:18 10° SSW 19:45:51 30° W 19:50:25 10° NW visible
15 Dec 11.0 06:13:20 10° ENE 06:14:19 10° E 06:15:18 10° E visible
15 Dec 8.5 17:32:59 10° ESE 17:37:18 27° ENE 17:41:37 10° N visible
15 Dec 8.4 19:11:24 10° S 19:16:29 51° W 19:21:37 10° NNW visible
16 Dec 9.2 07:20:29 10° NNE 07:25:25 41° E 07:30:20 10° SSE visible
16 Dec 9.1 17:05:15 10° E 17:08:29 17° NE 17:11:43 10° NNE visible
16 Dec 7.6 18:42:00 10° SSE 18:47:15 89° WSW 18:52:32 10° NNW visible
16 Dec 10.5 20:24:54 10° WSW 20:27:28 14° W 20:30:03 10° WNW visible
17 Dec 10.2 06:51:49 10° NE 06:56:01 24° E 07:00:10 10° SE visible
17 Dec 7.7 18:13:03 10° SE 18:18:08 54° ENE 18:23:15 10° N visible
17 Dec 9.8 19:53:44 10° SW 19:57:55 24° W 20:02:08 10° NW visible
18 Dec 10.7 06:23:55 10° ENE 06:26:28 14° E 06:29:00 10° ESE visible
18 Dec 8.3 17:44:33 10° SE 17:49:09 32° ENE 17:53:46 10° N visible
18 Dec 8.9 19:23:35 10° SSW 19:28:31 41° W 19:33:28 10° NNW visible
